Weather History for Walnut Ridge, AR

Change the Weather History Date:

Thursday, December 19, 2013

  Actual Average Record
Temperature  
Mean Temperature 50 °F -  
Max Temperature 57 °F 42 °F 62 °F (1997)
Min Temperature 44 °F 28 °F 10 °F (2000)
Degree Days  
Heating Degree Days 14    
Moisture  
Dew Point 43 °F    
Average Humidity 74    
Maximum Humidity 82    
Minimum Humidity 62    
Precipitation  
Precipitation 0.00 in - - ()
Sea Level Pressure  
Sea Level Pressure 29.98 in    
Wind  
Wind Speed 15 mph (South)    
Max Wind Speed 20 mph    
Max Gust Speed 26 mph    
Visibility 10 miles    
Events      
Averages and records for this station are not official NWS values.
T = Trace of Precipitation, MM = Missing Value Source: NWS Daily Summary

Daily Weather History Graph

Daily Weather History Graph

Search for Another Location

Airport:

Trip Planner

Search our weather history database for the weather conditions in past years. The results will help you decide how hot, cold, wet, or windy it might be!

Date:

Astronomy

Dec. 19, 2013 Rise Set
Actual Time 7:09 AM CST 4:52 PM CST
Civil Twilight 6:41 AM CST 5:20 PM CST
Nautical Twilight 6:09 AM CST 5:52 PM CST
Astronomical Twilight 5:37 AM CST 6:24 PM CST
Moon 7:14 PM CST (12/19) 8:32 AM CST (12/19)
Length of Visible Light 10h 39m
Length of Day
9h 42m
Waning Gibbous, 95% of the Moon is Illuminated
Dec 19
Waning Gibbous
Dec 25
Last Quarter
Jan 1
New
Jan 7
First Quarter
Jan 15
Full

Hourly Weather History & Observations

Time (CST) Temp. Windchill Dew Point Humidity Pressure Visibility Wind Dir Wind Speed Gust Speed Precip Events Conditions
12:15 AM 48.2 °F - 37.4 °F 66% 30.06 in 10.0 mi SSW 17.3 mph - N/A   Clear
12:35 AM 48.2 °F - 37.4 °F 66% 30.06 in 10.0 mi SSW 16.1 mph - N/A   Clear
12:55 AM 48.2 °F - 37.4 °F 66% 30.06 in 10.0 mi South 15.0 mph 20.7 mph N/A   Clear
1:15 AM 48.2 °F - 37.4 °F 66% 30.06 in 10.0 mi South 12.7 mph - N/A   Clear
1:35 AM 46.4 °F 41.1 °F 37.4 °F 71% 30.06 in 10.0 mi South 11.5 mph - N/A   Clear
1:55 AM 46.4 °F 40.4 °F 37.4 °F 71% 30.06 in 10.0 mi South 13.8 mph - N/A   Clear
2:15 AM 46.4 °F 41.1 °F 37.4 °F 71% 30.06 in 10.0 mi South 11.5 mph - N/A   Clear
2:35 AM 44.6 °F 38.8 °F 37.4 °F 76% 30.07 in 10.0 mi South 11.5 mph - N/A   Clear
2:55 AM 44.6 °F 39.2 °F 37.4 °F 76% 30.07 in 10.0 mi South 10.4 mph - N/A   Clear
3:15 AM 44.6 °F 38.8 °F 37.4 °F 76% 30.06 in 10.0 mi South 11.5 mph - N/A   Clear
3:35 AM 44.6 °F 38.4 °F 37.4 °F 76% 30.06 in 10.0 mi South 12.7 mph - N/A   Clear
3:55 AM 44.6 °F 38.4 °F 37.4 °F 76% 30.05 in 10.0 mi South 12.7 mph - N/A   Clear
4:15 AM 44.6 °F 38.1 °F 37.4 °F 76% 30.04 in 10.0 mi South 13.8 mph - N/A   Clear
4:35 AM 44.6 °F 37.8 °F 37.4 °F 76% 30.04 in 10.0 mi South 15.0 mph - N/A   Clear
4:55 AM 44.6 °F 37.4 °F 37.4 °F 76% 30.04 in 10.0 mi South 16.1 mph - N/A   Clear
5:15 AM 46.4 °F 40.1 °F 37.4 °F 71% 30.04 in 10.0 mi South 15.0 mph - N/A   Clear
5:35 AM 44.6 °F 37.2 °F 37.4 °F 76% 30.04 in 10.0 mi South 17.3 mph - N/A   Clear
5:55 AM 44.6 °F 37.8 °F 37.4 °F 76% 30.04 in 10.0 mi South 15.0 mph - N/A   Clear
6:15 AM 44.6 °F 38.8 °F 37.4 °F 76% 30.04 in 10.0 mi South 11.5 mph - N/A   Clear
6:35 AM 44.6 °F 38.1 °F 35.6 °F 71% 30.04 in 10.0 mi South 13.8 mph - N/A   Clear
6:55 AM 44.6 °F 37.8 °F 35.6 °F 71% 30.04 in 10.0 mi South 15.0 mph - N/A   Clear
7:15 AM 44.6 °F 39.2 °F 37.4 °F 76% 30.05 in 10.0 mi South 10.4 mph - N/A   Clear
7:35 AM 44.6 °F 39.2 °F 35.6 °F 71% 30.05 in 10.0 mi South 10.4 mph - N/A   Clear
7:55 AM 44.6 °F 38.4 °F 35.6 °F 71% 30.05 in 10.0 mi South 12.7 mph - N/A   Clear
8:15 AM 44.6 °F 38.4 °F 37.4 °F 76% 30.05 in 10.0 mi South 12.7 mph - N/A   Clear
8:35 AM 46.4 °F 41.1 °F 37.4 °F 71% 30.06 in 10.0 mi South 11.5 mph - N/A   Clear
8:55 AM 46.4 °F 39.8 °F 37.4 °F 71% 30.06 in 10.0 mi South 16.1 mph - N/A   Clear
9:15 AM 48.2 °F - 39.2 °F 71% 30.06 in 10.0 mi South 17.3 mph 23.0 mph N/A   Clear
9:35 AM 50.0 °F - 39.2 °F 66% 30.06 in 10.0 mi South 17.3 mph 24.2 mph N/A   Clear
9:55 AM 51.8 °F - 39.2 °F 62% 30.07 in 10.0 mi South 18.4 mph - N/A   Clear
10:15 AM 51.8 °F - 42.8 °F 71% 30.07 in 10.0 mi SSW 16.1 mph 21.9 mph N/A   Partly Cloudy
10:35 AM 53.6 °F - 42.8 °F 67% 30.07 in 10.0 mi SSW 19.6 mph - N/A   Partly Cloudy
10:55 AM 51.8 °F - 42.8 °F 71% 30.07 in 10.0 mi SSW 19.6 mph 26.5 mph N/A   Mostly Cloudy
11:15 AM 51.8 °F - 42.8 °F 71% 30.06 in 10.0 mi SSW 19.6 mph 23.0 mph N/A   Scattered Clouds
11:35 AM 51.8 °F - 42.8 °F 71% 30.05 in 10.0 mi South 18.4 mph 21.9 mph N/A   Clear
11:55 AM 53.6 °F - 44.6 °F 72% 30.04 in 10.0 mi South 19.6 mph 24.2 mph N/A   Clear
12:15 PM 53.6 °F - 44.6 °F 72% 30.03 in 10.0 mi South 16.1 mph - N/A   Partly Cloudy
12:35 PM 53.6 °F - 44.6 °F 72% 30.01 in 10.0 mi South 15.0 mph - N/A   Partly Cloudy
12:55 PM 53.6 °F - 44.6 °F 72% 30.00 in 10.0 mi South 13.8 mph - N/A   Scattered Clouds
1:15 PM 53.6 °F - 46.4 °F 77% 29.99 in 10.0 mi South 12.7 mph 20.7 mph N/A   Mostly Cloudy
1:35 PM 55.4 °F - 46.4 °F 72% 29.97 in 10.0 mi South 13.8 mph - N/A   Scattered Clouds
1:55 PM 55.4 °F - 46.4 °F 72% 29.96 in 10.0 mi South 15.0 mph - N/A   Clear
2:15 PM 55.4 °F - 48.2 °F 77% 29.94 in 10.0 mi South 17.3 mph - N/A   Clear
2:35 PM 55.4 °F - 48.2 °F 77% 29.93 in 10.0 mi SSE 18.4 mph - N/A   Clear
2:55 PM 55.4 °F - 46.4 °F 72% 29.93 in 10.0 mi South 16.1 mph 23.0 mph N/A   Clear
3:15 PM 55.4 °F - 46.4 °F 72% 29.92 in 10.0 mi SSE 15.0 mph - N/A   Clear
3:35 PM 55.4 °F - 46.4 °F 72% 29.91 in 10.0 mi South 15.0 mph - N/A   Clear
3:55 PM 55.4 °F - 46.4 °F 72% 29.90 in 10.0 mi SSE 17.3 mph - N/A   Clear
4:15 PM 55.4 °F - 46.4 °F 72% 29.90 in 10.0 mi South 15.0 mph - N/A   Clear
4:35 PM 55.4 °F - 46.4 °F 72% 29.90 in 10.0 mi South 16.1 mph - N/A   Clear
4:55 PM 55.4 °F - 46.4 °F 72% 29.90 in 10.0 mi South 15.0 mph - N/A   Mostly Cloudy
5:15 PM 55.4 °F - 46.4 °F 72% 29.90 in 10.0 mi South 17.3 mph - N/A   Overcast
5:35 PM 55.4 °F - 46.4 °F 72% 29.90 in 10.0 mi SSE 12.7 mph - N/A   Overcast
5:55 PM 53.6 °F - 46.4 °F 77% 29.90 in 10.0 mi South 15.0 mph - N/A   Mostly Cloudy
6:15 PM 53.6 °F - 46.4 °F 77% 29.90 in 10.0 mi South 16.1 mph - N/A   Mostly Cloudy
6:35 PM 53.6 °F - 46.4 °F 77% 29.90 in 10.0 mi South 15.0 mph - N/A   Overcast
6:55 PM 53.6 °F - 46.4 °F 77% 29.91 in 10.0 mi South 12.7 mph - N/A   Overcast
7:15 PM 53.6 °F - 46.4 °F 77% 29.90 in 10.0 mi South 12.7 mph - N/A   Overcast
7:35 PM 53.6 °F - 46.4 °F 77% 29.89 in 10.0 mi South 13.8 mph - N/A   Overcast
7:55 PM 53.6 °F - 46.4 °F 77% 29.89 in 10.0 mi South 11.5 mph - N/A   Overcast
8:15 PM 55.4 °F - 46.4 °F 72% 29.89 in 10.0 mi South 13.8 mph - N/A   Overcast
8:35 PM 55.4 °F - 48.2 °F 77% 29.88 in 10.0 mi South 13.8 mph - N/A   Overcast
8:55 PM 53.6 °F - 48.2 °F 82% 29.88 in 10.0 mi South 12.7 mph - N/A   Overcast
9:15 PM 53.6 °F - 48.2 °F 82% 29.88 in 10.0 mi South 12.7 mph - N/A   Overcast
9:35 PM 53.6 °F - 48.2 °F 82% 29.88 in 10.0 mi South 10.4 mph - N/A   Overcast
9:55 PM 55.4 °F - 48.2 °F 77% 29.88 in 10.0 mi SSW 9.2 mph - N/A   Overcast
10:15 PM 55.4 °F - 48.2 °F 77% 29.88 in 10.0 mi South 12.7 mph - N/A   Overcast
10:35 PM 55.4 °F - 48.2 °F 77% 29.88 in 10.0 mi South 13.8 mph - N/A   Overcast
10:55 PM 55.4 °F - 48.2 °F 77% 29.87 in 10.0 mi South 15.0 mph - N/A   Overcast
11:15 PM 55.4 °F - 50.0 °F 82% 29.87 in 10.0 mi South 16.1 mph 19.6 mph N/A   Mostly Cloudy
11:35 PM 57.2 °F - 50.0 °F 77% 29.86 in 10.0 mi South 16.1 mph 20.7 mph N/A   Mostly Cloudy
11:55 PM 57.2 °F - 50.0 °F 77% 29.86 in 10.0 mi South 17.3 mph 24.2 mph N/A   Mostly Cloudy